Date String (YYYY-MM-DD hh:mm:ss) UTC,Instrument flags,Ambient pressure (hPa),Sample flow (lpm),Bypass flow (lpm),Sample temperature (°C),Ambient temperature (°C),ASC tube jacket temperature (°C),LED temperature (°C),Box temperature (°C),Sample RH (%),Span deviation,Mass concentration (μg/m³),Mass concentration (μg/m³),Mass concentration (μg/m³)
DateTimeUTC,F1_M11,P_M11,Q1_M11,Q2_M11,T1_M11,T2_M11,T3_M11,T4_M11,T5_M11,U1_M11,ZSPAN_M11,X0_M11,X2_M11,X1_M11
2022-01-17 02:00:00,,0828.3,5.00,0.00,25.6,24.9,00.0,34.6,27.4,08.6,0000.0,0006.44,0001.86,0001.50
2022-01-17 02:01:00,,0828.3,5.00,0.00,25.6,24.9,00.0,34.6,27.3,08.6,0000.0,0006.34,0001.83,0001.50
2022-01-17 02:02:00,,0828.3,5.01,0.00,25.6,24.8,00.0,34.6,27.3,08.5,0000.0,0006.07,0001.83,0001.51
2022-01-17 02:03:00,,0828.3,5.00,0.00,25.6,24.8,00.0,34.6,27.3,08.5,0000.0,0005.95,0001.84,0001.52
2022-01-17 02:04:00,,0828.2,5.00,0.00,25.5,24.8,00.0,34.6,27.3,08.5,0000.0,0006.09,0001.86,0001.52
2022-01-17 02:05:00,,0828.3,5.01,0.00,25.5,24.8,00.0,34.6,27.3,08.5,0000.0,0006.01,0001.84,0001.52
2022-01-17 02:06:00,,0828.3,5.00,0.00,25.5,24.8,00.0,34.6,27.3,08.5,0000.0,0004.02,0001.83,0001.53
2022-01-17 02:07:00,,0828.3,5.00,0.00,25.5,24.8,00.0,34.6,27.3,08.5,0000.0,0003.91,0001.84,0001.55
2022-01-17 02:08:00,,0828.3,5.00,0.00,25.5,24.7,00.0,34.6,27.2,08.5,0000.0,0003.59,0001.83,0001.57
2022-01-17 02:09:00,,0828.3,5.00,0.00,25.5,24.7,00.0,34.5,27.2,08.5,0000.0,0003.08,0001.87,0001.58
2022-01-17 02:10:00,,0828.2,4.98,0.00,25.5,24.7,00.0,34.5,27.2,08.5,0000.0,0003.24,0001.91,0001.60
2022-01-17 02:11:00,,0828.3,5.02,0.00,25.4,24.7,00.0,34.5,27.2,08.5,0000.0,0003.28,0001.94,0001.62
2022-01-17 02:12:00,,0828.3,4.99,0.00,25.4,24.7,00.0,34.5,27.2,08.5,0000.0,0003.33,0001.98,0001.64
2022-01-17 02:13:00,,0828.2,5.01,0.00,25.4,24.7,00.0,34.5,27.2,08.5,0000.0,0003.19,0002.00,0001.65
2022-01-17 02:14:00,,0828.2,5.00,0.00,25.4,24.7,00.0,34.5,27.2,08.5,0000.0,0003.30,0002.02,0001.66
2022-01-17 02:15:00,,0828.2,4.99,0.00,25.4,24.6,00.0,34.5,27.1,08.5,0000.0,0003.43,0002.04,0001.68
2022-01-17 02:16:00,,0828.2,4.99,0.00,25.4,24.6,00.0,34.5,27.1,08.5,0000.0,0003.50,0002.06,0001.70
2022-01-17 02:17:00,,0828.1,5.01,0.00,25.4,24.6,00.0,34.5,27.1,08.5,0000.0,0003.57,0002.09,0001.72
2022-01-17 02:18:00,,0828.1,4.98,0.00,25.4,24.6,00.0,34.4,27.1,08.5,0000.0,0003.57,0002.10,0001.75
2022-01-17 02:19:00,,0828.2,5.01,0.00,25.3,24.6,00.0,34.4,27.1,08.5,0000.0,0003.53,0002.10,0001.76
2022-01-17 02:20:00,,0828.2,4.98,0.00,25.3,24.5,00.0,34.4,27.1,08.5,0000.0,0003.53,0002.14,0001.78
2022-01-17 02:21:00,,0828.1,5.01,0.00,25.3,24.5,00.0,34.4,27.0,08.5,0000.0,0004.64,0002.17,0001.81
2022-01-17 02:22:00,,0828.1,5.00,0.00,25.3,24.5,00.0,34.4,27.0,08.6,0000.0,0007.39,0002.19,0001.82
2022-01-17 02:23:00,,0828.1,5.01,0.00,25.3,24.5,00.0,34.4,27.0,08.6,0000.0,0007.38,0002.19,0001.85
2022-01-17 02:24:00,,0828.1,4.99,0.00,25.3,24.5,00.0,34.4,27.0,08.6,0000.0,0007.87,0002.22,0001.87
2022-01-17 02:25:00,,0828.0,5.01,0.00,25.2,24.4,00.0,34.4,27.0,08.6,0000.0,0008.75,0002.25,0001.90
2022-01-17 02:26:00,,0828.0,4.99,0.00,25.2,24.4,00.0,34.4,27.0,08.6,0000.0,0008.67,0002.27,0001.92
2022-01-17 02:27:00,,0828.2,4.99,0.00,25.2,24.4,00.0,34.3,26.9,08.6,0000.0,0008.65,0002.27,0001.95
2022-01-17 02:28:00,,0828.0,5.00,0.00,25.2,24.4,00.0,34.3,26.9,08.6,0000.0,0008.75,0002.31,0001.97
2022-01-17 02:29:00,,0827.9,5.02,0.00,25.2,24.4,00.0,34.3,26.9,08.6,0000.0,0008.77,0002.32,0001.99
2022-01-17 02:30:00,,0827.9,4.99,0.00,25.1,24.4,00.0,34.3,26.8,08.6,0000.0,0008.82,0002.36,0002.02
2022-01-17 02:31:00,,0828.0,5.02,0.00,25.1,24.3,00.0,34.3,26.8,08.6,0000.0,0008.79,0002.38,0002.04
2022-01-17 02:32:00,,0827.9,4.99,0.00,25.1,24.3,00.0,34.3,26.8,08.6,0000.0,0009.29,0002.41,0002.08
2022-01-17 02:33:00,,0828.0,5.01,0.00,25.1,24.3,00.0,34.2,26.8,08.6,0000.0,0007.86,0002.43,0002.10
2022-01-17 02:34:00,,0828.0,5.00,0.00,25.1,24.3,00.0,34.2,26.8,08.6,0000.0,0007.91,0002.46,0002.12
2022-01-17 02:35:00,,0827.9,5.01,0.00,25.1,24.3,00.0,34.2,26.8,08.6,0000.0,0007.56,0002.47,0002.14
2022-01-17 02:36:00,,0827.9,4.99,0.00,25.1,24.3,00.0,34.2,26.8,08.6,0000.0,0006.10,0002.49,0002.16
2022-01-17 02:37:00,,0827.9,5.01,0.00,25.0,24.3,00.0,34.2,26.8,08.6,0000.0,0006.22,0002.51,0002.17
2022-01-17 02:38:00,,0827.9,5.00,0.00,25.0,24.3,00.0,34.2,26.8,08.7,0000.0,0006.17,0002.53,0002.18
2022-01-17 02:39:00,,0828.0,4.99,0.00,25.0,24.2,00.0,34.2,26.7,08.7,0000.0,0006.02,0002.53,0002.18
2022-01-17 02:40:00,,0827.9,4.99,0.00,25.0,24.2,00.0,34.2,26.7,08.7,0000.0,0006.04,0002.56,0002.20
2022-01-17 02:41:00,,0827.8,5.01,0.00,25.0,24.2,00.0,34.1,26.7,08.7,0000.0,0006.04,0002.59,0002.22
2022-01-17 02:42:00,,0827.8,4.99,0.00,25.0,24.2,00.0,34.1,26.7,08.7,0000.0,0005.99,0002.58,0002.24
2022-01-17 02:43:00,,0827.8,5.02,0.00,25.0,24.1,00.0,34.1,26.7,08.7,0000.0,0004.92,0002.59,0002.26
2022-01-17 02:44:00,,0827.8,4.99,0.00,24.9,24.1,00.0,34.1,26.7,08.7,0000.0,0004.03,0002.62,0002.29
2022-01-17 02:45:00,,0827.8,5.01,0.00,24.9,24.1,00.0,34.1,26.6,08.7,0000.0,0003.99,0002.65,0002.30
2022-01-17 02:46:00,,0827.7,5.01,0.00,24.9,24.1,00.0,34.1,26.6,08.7,0000.0,0004.15,0002.67,0002.31
2022-01-17 02:47:00,,0827.7,5.00,0.00,24.9,24.1,00.0,34.0,26.6,08.8,0000.0,0004.46,0002.69,0002.33
2022-01-17 02:48:00,,0827.7,5.00,0.00,24.9,24.0,00.0,34.0,26.6,08.8,0000.0,0004.81,0002.74,0002.35
2022-01-17 02:49:00,,0827.7,5.01,0.00,24.9,24.0,00.0,34.0,26.6,08.8,0000.0,0004.93,0002.79,0002.37
2022-01-17 02:50:00,,0827.7,4.99,0.00,24.8,24.0,00.0,34.0,26.6,08.8,0000.0,0004.95,0002.82,0002.40
2022-01-17 02:51:00,,0827.7,4.99,0.00,24.8,24.0,00.0,34.0,26.6,08.8,0000.0,0004.88,0002.80,0002.40
2022-01-17 02:52:00,,0827.7,5.01,0.00,24.8,24.0,00.0,34.0,26.6,08.8,0000.0,0004.90,0002.82,0002.40
2022-01-17 02:53:00,,0827.7,4.99,0.00,24.8,24.0,00.0,33.9,26.5,08.8,0000.0,0005.08,0002.82,0002.39
2022-01-17 02:54:00,,0827.7,5.01,0.00,24.8,24.0,00.0,33.9,26.5,08.9,0000.0,0005.09,0002.80,0002.37
2022-01-17 02:55:00,,0827.7,4.99,0.00,24.8,24.0,00.0,33.9,26.5,08.9,0000.0,0005.10,0002.80,0002.37
2022-01-17 02:56:00,,0827.7,5.01,0.00,24.8,24.0,00.0,33.9,26.5,08.9,0000.0,0005.27,0002.80,0002.38
2022-01-17 02:57:00,,0827.7,5.00,0.00,24.8,24.0,00.0,33.9,26.5,08.9,0000.0,0006.06,0002.81,0002.39
2022-01-17 02:58:00,,0827.7,4.99,0.00,24.7,24.0,00.0,33.9,26.5,08.9,0000.0,0005.65,0002.82,0002.40
2022-01-17 02:59:00,,0827.7,5.01,0.00,24.7,24.0,00.0,33.9,26.5,08.9,0000.0,0005.20,0002.83,0002.42
